Tracking 18942 objects as of 18-Jan-2018
HD Live streaming from Space Station
objects crossing your sky now

FENGYUN 1C DEB

Track FENGYUN 1C DEB now!
10-day predictions


NORAD ID: 37061
Int'l Code: 1999-025EEV
Perigee: 613.0 km
Apogee: 2,007.9 km
Inclination: 98.0 °
Period: 111.7 minutes
Semi major axis: 7681 km
RCS: 0.0064 m2 (small)
Launch date: May 10, 1999
Source: People's Republic of China (PRC)
Launch site: Taiyaun Space Center, China (TSC)

Note: This is SATELLITE DEBRIS
aabbcc
Your satellite tracking list
Your tracking list is empty




NASA's NSSDC Master Catalog

Two Line Element Set (TLE):
1 37061U 99025EEV 18010.90463186 +.00000523 +00000-0 +31314-3 0  9994
2 37061 098.0415 049.8008 0907987 124.4928 244.5362 12.89546911667275
Source of the keplerian elements: AFSPC